Location: Kalberh�ni
(46.4610°N, 7.2453°E)
Time: 18:26:05
(UTC+00:00)

Cosmos 1626 - Pass Details

Date: 27 October 2021
Orbit: 487 x 492 km, 82.5° (Epoch: 02 December)

Event Time Altitude Azimuth Distance (km) Brightness Sun altitude
Exits shadow 04:12:03 29° 342° (NNW) 929 3.3 -20.1°
Drops below altitude 10° 04:14:07 10° 359° (N) 1,700 4.8 -19.7°
Sets 04:16:18 0° 5° (N) 2,587 5.8 -19.3°
